Home > Weather > Bucaramanga > Past weeks

Flag for Colombia Past Weather in Bucaramanga, Colombia — Yesterday and Last 2 Weeks

Now
70 °F

Partly sunny.


Feels Like: 70 °F
Forecast: 70 / 88 °F
Wind: 6 mph from Southwest

Location: Bucaramanga / Palonegro

Current Time: Jun 28, 2016 at 6:43:26 AM

Latest Report: Jun 28, 2016 at 6:00 AM


Visibility: N/A

Pressure: 29.97 "Hg (26.82 "Hg at 956m altitude)

Humidity: 83%

Dew Point: 64 °F

Location of BucaramangaLocation

Past Weather in Bucaramanga — Graph

°F

Bucaramanga Temperature Yesterday

Maximum temperature yesterday: 82 °F (at 12:00 PM)
Minimum temperature yesterday: 68 °F (at 6:00 AM)
Average temperature yesterday: 76 °F

High & Low Weather Summary for the Past Weeks

 TemperatureHumidityPressure
High82 °F (Jun 27, 12:00 PM)100% (Jun 14, 4:00 PM)30.15 "Hg (Jun 14, 4:00 PM)
Low63 °F (Jun 20, 8:00 PM)58% (Jun 13, 1:00 PM)29.91 "Hg (Jun 27, 4:00 PM)
Average72 °F83%30.03 "Hg
* Reported Jun 13 6:00 AM — Jun 28 12:00 AM, Bucaramanga, Weather by CustomWeather, © 2016

Note: Actual official high and low records may vary slightly from our data, if they occured in-between our weather recording intervals... More about our weather records

Advertising

Bucaramanga Weather History for the Previous 24 Hours

Scroll right to see more
 ConditionsComfort  
Time TempWeatherWind HumidityBarometerVisibility
12:00 AM
Tue, Jun 28
72 °FPassing clouds.No wind88%30.00 "HgN/A
11:00 PM
Mon, Jun 27
73 °FPassing clouds.No wind89%30.01 "HgN/A
10:00 PM73 °FPassing clouds.No wind89%30.02 "HgN/A
9:00 PM72 °FPassing clouds.2 mph94%30.00 "HgN/A
8:00 PM73 °FPassing clouds.3 mph89%29.99 "HgN/A
7:00 PM75 °FPassing clouds.6 mph83%29.95 "HgN/A
6:00 PM77 °FScattered clouds.7 mph74%29.93 "HgN/A
5:00 PM81 °FPassing clouds.7 mph62%29.91 "HgN/A
4:00 PM81 °FScattered clouds.8 mph62%29.91 "HgN/A
3:00 PM81 °FScattered clouds.9 mph66%29.92 "HgN/A
2:00 PM82 °FScattered clouds.8 mph62%29.92 "HgN/A
1:00 PM82 °FScattered clouds.6 mph58%29.95 "HgN/A
12:00 PM82 °FScattered clouds.5 mph58%29.96 "HgN/A
11:00 AM81 °FScattered clouds.3 mph62%29.98 "HgN/A
10:00 AM79 °FPassing clouds.7 mph65%30.00 "HgN/A
9:00 AM73 °FPassing clouds.7 mph74%30.00 "HgN/A
8:00 AM72 °FPassing clouds.7 mph83%30.00 "HgN/A
7:00 AM70 °FPassing clouds.7 mph88%30.00 "HgN/A
6:00 AM68 °FClear.6 mph88%29.99 "HgN/A
Weather by CustomWeather, © 2016

See weather overviewHow to use our weather pages